CW4611 Weather Reports


time (UTC)temp
C
wind
direction
speed
KPH
gust
KPH
rain 1hr
cm
rain 24hr
cm
rain mn
cm
humidity
%
barometer
mb
20260506153605 2 12 8.0 12.9 0.00 1.30 0.05 79 1024.2
20260506153105 1 12 8.0 14.5 0.00 1.30 0.05 82 1024.2
20260506151605 1 12 3.2 8.0 0.00 1.30 0.05 82 1024.1
20260506151105 1 13 3.2 8.0 0.00 1.32 0.05 82 1024.0
20260506144604 0 12 3.2 14.5 0.00 1.57 0.05 81 1024.1
20260506144104 0 14 3.2 11.3 0.00 1.60 0.05 85 1024.0
20260506143105 0 12 3.2 9.7 0.00 1.68 0.05 85 1024.0
20260506141604 0 13 3.2 9.7 0.00 1.73 0.05 85 1023.8
20260506141104 0 13 1.6 8.0 0.00 1.73 0.05 86 1023.8
20260506140605 -1 14 1.6 4.8 0.00 1.73 0.05 85 1023.7
20260506140105 -1 13 3.2 8.0 0.00 1.73 0.05 83 1023.8
20260506134605 0 13 0.0 3.2 0.00 1.73 0.05 82 1023.7
20260506134104 0 13 1.6 4.8 0.00 1.73 0.05 82 1023.5
20260506133605 0 12 1.6 4.8 0.00 1.73 0.05 82 1023.5
20260506133104 0 13 1.6 4.8 0.00 1.73 0.05 83 1023.4
20260506131604 -1 13 1.6 3.2 0.00 1.73 0.05 88 1023.1
20260506131104 -1 14 1.6 3.2 0.00 1.75 0.05 88 1023.0
20260506130604 -2 14 0.0 0.0 0.00 1.75 0.05 87 1022.9
20260506130105 -2 14 0.0 3.2 0.00 1.78 0.05 87 1022.9
20260506124105 -1 15 0.0 1.6 0.00 1.83 0.05 86 1022.2
20260506123605 -1 15 1.6 4.8 0.00 1.83 0.05 86 1022.1
20260506123105 -1 13 3.2 4.8 0.00 1.85 0.05 85 1022.0
20260506121605 -1 13 0.0 1.6 0.00 1.93 0.05 86 1021.9
20260506121105 -1 13 3.2 4.8 0.00 2.01 0.05 86 1021.9
20260506120605 -1 15 0.0 3.2 0.00 2.06 0.05 85 1021.8
20260506120104 -1 14 1.6 4.8 0.00 2.11 0.05 84 1021.8
20260506114605 0 9 1.6 3.2 0.00 2.36 0.05 84 1021.6
20260506113605 0 10 1.6 4.8 0.00 2.49 0.05 83 1021.4
20260506113104 0 11 3.2 4.8 0.00 2.51 0.05 85 1021.5
20260506111605 0 11 3.2 9.7 0.00 2.69 0.05 82 1021.4
20260506111104 0 10 3.2 8.0 0.00 2.69 0.05 81 1021.5
20260506110604 0 11 3.2 9.7 0.00 2.72 0.05 83 1021.3
20260506110105 0 11 3.2 9.7 0.00 2.72 0.05 84 1021.2
20260506104604 0 9 3.2 4.8 0.00 2.72 0.05 86 1021.6
20260506104104 0 11 1.6 8.0 0.00 2.72 0.05 86 1021.5
20260506103604 0 9 4.8 4.8 0.00 2.72 0.05 88 1021.6
20260506103104 0 9 4.8 9.7 0.00 2.72 0.05 88 1021.6
20260506101605 0 13 0.0 4.8 0.00 2.72 0.05 88 1021.6
20260506101105 0 13 3.2 4.8 0.00 2.72 0.05 87 1021.4
20260506100604 0 13 1.6 4.8 0.00 2.72 0.05 88 1021.3
20260506100105 0 12 1.6 11.3 0.00 2.72 0.05 88 1021.3
20260506094605 0 12 1.6 8.0 0.00 2.72 0.05 82 1020.8
20260506094104 0 9 3.2 16.1 0.00 2.72 0.05 83 1020.4
20260506093605 0 9 14.5 22.5 0.00 2.72 0.05 81 1020.0
20260506093104 0 10 11.3 19.3 0.00 2.72 0.05 81 1019.8
20260506091604 0 12 0.0 4.8 0.00 2.72 0.05 83 1019.7
20260506091105 1 10 1.6 4.8 0.00 2.72 0.05 84 1019.7
20260506090605 1 11 1.6 4.8 0.00 2.72 0.05 85 1019.5
20260506090104 1 9 3.2 9.7 0.00 2.72 0.05 82 1019.4
20260506084604 1 11 1.6 4.8 0.00 2.72 0.05 85 1019.3
20260506083604 0 9 4.8 14.5 0.03 2.72 0.05 84 1019.1
20260506083105 0 10 8.0 19.3 0.03 2.72 0.05 86 1018.9
20260506080605 1 13 1.6 8.0 0.05 2.72 0.05 93 1018.5
20260506080104 1 11 0.0 4.8 0.05 2.72 0.05 93 1018.3
20260506071605 2 5 0.0 0.0 0.00 2.67 0.00 90 1017.5
20260506071104 2 5 0.0 1.6 0.00 2.67 0.00 90 1017.5
20260506070604 2 5 1.6 3.2 0.00 2.67 0.00 91 1017.6
20260506070104 2 15 0.0 0.0 0.00 2.67 0.00 91 1017.7
20260506061107 1 6 3.2 4.8 0.10 2.67 0.00 91 1017.4
20260506060605 1 9 1.6 4.8 0.10 2.67 0.00 92 1017.3
20260506060105 1 15 0.0 8.0 0.10 2.67 0.00 92 1017.3
20260506050104 1 9 1.6 9.7 0.00 2.57 2.57 89 1015.8
20260506044605 1 9 4.8 9.7 0.00 2.57 2.57 88 1016.1
20260506043604 1 10 8.0 16.1 0.00 2.57 2.57 89 1016.3
20260506041604 1 9 3.2 4.8 0.00 2.57 2.57 90 1016.1
20260506041104 1 9 3.2 4.8 0.03 2.57 2.57 90 1016.2
20260506040604 1 9 3.2 8.0 0.03 2.57 2.57 90 1016.3
20260506034605 1 9 3.2 4.8 0.13 2.57 2.57 89 1016.1
20260506034104 1 9 0.0 0.0 0.18 2.57 2.57 89 1016.1
20260506033104 2 9 1.6 4.8 0.30 2.57 2.57 89 1015.9
20260506031605 2 9 1.6 4.8 0.36 2.57 2.57 89 1015.8
20260506031104 2 9 4.8 8.0 0.33 2.54 2.54 90 1015.8
20260506030604 2 9 3.2 4.8 0.33 2.54 2.54 89 1015.6
20260506024604 2 8 1.6 4.8 0.23 2.44 2.44 86 1015.2
20260506024104 2 11 4.8 8.0 0.18 2.39 2.39 85 1015.1
20260506023604 2 9 3.2 4.8 0.10 2.31 2.31 84 1015.0
20260506021604 4 11 8.0 20.9 0.00 2.21 2.21 77 1014.5
20260506021104 5 10 9.7 22.5 0.00 2.21 2.21 73 1014.4
20260506020604 5 10 8.0 14.5 0.00 2.21 2.21 73 1014.4
20260506020104 5 9 11.3 19.3 0.00 2.21 2.21 78 1014.3
20260506014604 6 10 6.4 9.7 0.00 2.21 2.21 76 1014.0
20260506014104 6 9 4.8 9.7 0.00 2.21 2.21 80 1013.9
20260506013604 6 11 4.8 12.9 0.00 2.21 2.21 78 1013.7
20260506013104 6 11 8.0 16.1 0.00 2.21 2.21 76 1013.8
20260506011603 6 10 0.0 1.6 0.00 2.21 2.21 76 1013.7
20260506011105 6 10 1.6 3.2 0.00 2.21 2.21 77 1013.7
20260506010604 6 9 0.0 1.6 0.00 2.21 2.21 78 1013.7
20260506010104 6 9 0.0 1.6 0.00 2.21 2.21 77 1013.6
20260506004604 6 7 0.0 3.2 0.00 2.21 2.21 77 1013.6
20260506004104 6 14 1.6 3.2 0.00 2.21 2.21 78 1013.7
20260506003604 6 15 0.0 3.2 0.00 2.21 2.21 79 1013.7
20260506001604 6 13 1.6 4.8 0.00 2.21 2.21 81 1013.8
20260506001104 6 13 1.6 4.8 0.00 2.21 2.21 81 1013.8
20260506000604 6 14 1.6 8.0 0.00 2.21 2.21 81 1013.7
20260506000104 6 13 4.8 4.8 0.00 2.21 2.21 83 1013.7
20260505234104 5 13 1.6 4.8 0.00 2.21 2.21 82 1013.7
20260505233604 5 15 1.6 1.6 0.00 2.21 2.21 84 1013.8
20260505233104 5 15 3.2 4.8 0.00 2.21 2.21 84 1013.9
20260505231104 5 12 1.6 8.0 0.00 2.21 2.21 84 1014.0
20260505230604 5 13 3.2 4.8 0.00 2.21 2.21 83 1014.0
20260505230104 5 13 3.2 8.0 0.00 2.21 2.21 84 1014.0
20260505224604 5 13 3.2 8.0 0.00 2.21 2.21 85 1014.1
20260505224104 5 14 3.2 4.8 0.00 2.21 2.21 85 1014.1
20260505223604 5 13 3.2 4.8 0.00 2.21 2.21 87 1014.1
20260505221605 5 13 3.2 8.0 0.03 2.21 2.21 88 1014.1
20260505221105 5 12 1.6 4.8 0.05 2.21 2.21 92 1014.0
20260505220605 4 13 3.2 4.8 0.08 2.21 2.21 90 1014.1
20260505220105 4 14 1.6 9.7 0.08 2.21 2.21 91 1014.0
20260505214605 3 13 3.2 4.8 0.20 2.21 2.21 91 1014.2
20260505214104 3 13 1.6 4.8 0.23 2.21 2.21 89 1014.2
20260505213605 3 14 0.0 4.8 0.25 2.21 2.21 89 1014.2
20260505213105 3 13 3.2 8.0 0.28 2.21 2.21 89 1014.3
20260505211605 3 13 1.6 8.0 0.28 2.18 2.18 90 1014.3
20260505210605 3 12 3.2 8.0 0.23 2.13 2.13 90 1014.3
20260505210105 3 13 1.6 8.0 0.23 2.13 2.13 90 1014.4
20260505204605 3 13 3.2 8.0 0.10 2.01 2.01 91 1014.4
20260505204105 3 13 0.0 9.7 0.08 1.98 1.98 91 1014.3
20260505203605 3 13 0.0 4.8 0.05 1.96 1.96 91 1014.3
20260505203105 3 14 1.6 8.0 0.03 1.93 1.93 91 1014.2
20260505201605 3 14 1.6 4.8 0.00 1.91 1.91 91 1013.9
20260505201105 3 13 3.2 4.8 0.00 1.91 1.91 92 1013.9
20260505200605 3 11 1.6 3.2 0.00 1.91 1.91 91 1013.8
20260505200105 3 13 1.6 4.8 0.00 1.91 1.91 90 1013.7
20260505194605 2 13 1.6 4.8 0.05 1.91 1.91 91 1013.6
20260505193605 2 13 3.2 4.8 0.08 1.91 1.91 91 1013.6
20260505193105 2 13 3.2 4.8 0.08 1.91 1.91 91 1013.6
20260505191605 2 13 0.0 0.0 0.13 1.91 1.91 90 1013.5
20260505191105 2 13 0.0 0.0 0.15 1.91 1.91 90 1013.4
20260505190604 2 13 0.0 1.6 0.18 1.91 1.91 90 1013.4
20260505190105 2 13 0.0 1.6 0.18 1.91 1.91 90 1013.3
20260505184605 2 13 0.0 1.6 0.15 1.85 1.85 90 1013.6
20260505184104 2 13 0.0 0.0 0.18 1.85 1.85 90 1013.5
20260505183604 2 13 0.0 3.2 0.15 1.83 1.83 90 1013.6
20260505183105 2 13 1.6 4.8 0.15 1.83 1.83 90 1013.5
20260505181605 2 13 1.6 4.8 0.10 1.78 1.78 92 1013.2
20260505181105 2 13 1.6 4.8 0.08 1.75 1.75 92 1013.1
20260505180605 2 13 1.6 4.8 0.05 1.73 1.73 92 1012.9
20260505174605 1 13 1.6 3.2 0.08 1.70 1.70 92 1012.6
20260505174104 1 13 1.6 3.2 0.08 1.68 1.68 91 1012.5
20260505173605 1 13 3.2 4.8 0.08 1.68 1.68 91 1012.5
20260505173105 1 12 1.6 4.8 0.10 1.68 1.68 91 1012.4
20260505171605 1 12 0.0 0.0 0.18 1.68 1.68 90 1012.1
20260505171105 1 12 0.0 0.0 0.23 1.68 1.68 89 1012.0
20260505170605 1 12 0.0 0.0 0.25 1.68 1.68 89 1012.0
20260505170105 1 12 0.0 4.8 0.25 1.68 1.68 89 1011.8
20260505164605 2 13 0.0 3.2 0.20 1.63 1.63 88 1011.7
20260505164105 2 13 1.6 3.2 0.18 1.60 1.60 88 1011.7
20260505163104 2 14 1.6 3.2 0.15 1.57 1.57 88 1011.7
20260505161105 2 12 0.0 0.0 0.05 1.45 1.45 89 1011.3
20260505160605 2 12 0.0 3.2 0.03 1.42 1.42 89 1011.3
20260505160104 2 12 0.0 1.6 0.08 1.42 1.42 89 1011.2